Regional Weather Roundup
Issued by NWS

Home | Current Version | Previous Version | Text Only | Print | Product List | Glossary On
Versions: 1 2 3 4 5 6 7 8 9 10 11 12 13 14 15 16 17 18 19 20 21 22 23 24 25 26 27 28 29 30 31 32 33 34 35 36 37 38 39 40 41 42 43 44 45 46 47 48 49 50
000
ASUS43 KOAX 251510
RWRNE

WEATHER ROUNDUP FOR NEBRASKA
NATIONAL WEATHER SERVICE OMAHA NE
1000 AM CDT FRI MAY 25 2018

NOTES: SATELLITE DATA IS BEING USED TO AUGMENT CLOUD COVER ABOVE
       12000 FEET.
       "FAIR" INDICATES FEW OR NO CLOUDS BELOW 12,000 FEET WITH NO
       SIGNIFICANT WEATHER AND/OR OBSTRUCTIONS TO VISIBILITY.


NEZ001>004-019>022-054>056-251600-
NEBRASKA PANHANDLE

CITY           SKY/WX    TMP DP  RH WIND       PRES   REMARKS
SCOTTSBLUFF    SUNNY     69  54  58 NW12      30.02S
ALLIANCE       SUNNY     74  57  55 W7        29.98S
CHADRON        SUNNY     70  56  61 W7        29.96F
GORDON         FAIR      75  52  44 W10       29.95F
KIMBALL        SUNNY     71  51  49 W9        30.08S
SIDNEY         SUNNY     75  54  47 W8        30.04S
$$

NEZ057>060-069>072-079>082-251600-
SOUTHWEST NEBRASKA

CITY           SKY/WX    TMP DP  RH WIND       PRES   REMARKS
NORTH PLATTE   SUNNY     76  61  59 W6        29.94F
IMPERIAL       SUNNY     78  51  38 NW9       29.98F
LEXINGTON      SUNNY     75  59  56 W7        29.92F
MCCOOK         SUNNY     74  56  53 W7        29.95S
OGALLALA       SUNNY     73  58  57 W6        29.98S
$$

NEZ005>010-023>029-035>040-094-251600-
NORTH CENTRAL NEBRASKA

CITY           SKY/WX    TMP DP  RH WIND       PRES   REMARKS
VALENTINE      SUNNY     77  60  55 NW6       29.89F
AINSWORTH      SUNNY     77  61  57 W9        29.90S
BROKEN BOW     SUNNY     78  57  48 W8        29.91S
O`NEILL        SUNNY     80  64  58 NW6       29.88S
ORD            SUNNY     78  56  46 W10       29.88S
THEDFORD       SUNNY     79  58  49 W10       29.92F
$$

NEZ041-046>049-061>064-073>077-083>087-251600-
SOUTH CENTRAL NEBRASKA

CITY           SKY/WX    TMP DP  RH WIND       PRES   REMARKS
GRAND ISLAND   SUNNY     77  55  46 W6        29.91S
AURORA         PTSUNNY   77  52  42 W8        29.91S
HASTINGS       SUNNY     74  55  51 SW8       29.93R
HEBRON         SUNNY     80  59  48 W7        29.91R
HOLDREGE       SUNNY     78  54  43 W13       29.93R
KEARNEY        SUNNY     77  53  43 W9        29.92R
YORK           SUNNY     77  59  53 NW9       29.91S
$$

NEZ011>018-030>034-042>045-251600-
NORTHEAST NEBRASKA

CITY           SKY/WX    TMP DP  RH WIND       PRES   REMARKS
NORFOLK        SUNNY     82  59  45 W15       29.83F
ALBION         SUNNY     79  60  51 W5        29.89S
BLAIR          MOSUNNY   76  65  67 SW8       29.87F
COLUMBUS       SUNNY     79  60  52 W10       29.88S
FREMONT        SUNNY     80  64  56 SW5       29.86F
TEKAMAH        SUNNY     76  66  71 SW8       29.85S
WAYNE          SUNNY     79  71  76 W5        29.85S
$$

NEZ050>053-065>068-078-088>093-251600-
SOUTHEAST NEBRASKA

CITY           SKY/WX    TMP DP  RH WIND       PRES   REMARKS
LINCOLN        SUNNY     81  59  47 W10       29.89S
OMAHA EPPLEY   PTSUNNY   77  64  64 S7        29.86F
BEATRICE       MOSUNNY   79  62  55 CALM      29.91S
FALLS CITY     CLOUDY    75  65  70 S15G22    29.91R
NEBRASKA CITY  CLOUDY    76  65  69 W7        29.90S
PLATTSMOUTH    CLOUDY    74  65  74 SW8       29.88F
$$

NEZ044-045-051>053-067-251600-
OMAHA AREA

CITY           SKY/WX    TMP DP  RH WIND       PRES   REMARKS
OMAHA EPPLEY   PTSUNNY   77  64  64 S7        29.86F
BLAIR          MOSUNNY   76  65  67 SW8       29.87F
FREMONT        SUNNY     80  64  56 SW5       29.86F
MILLARD        CLOUDY    78  66  67 S5        29.87F
OFFUTT AFB     PTSUNNY   75  66  72 SE5       29.86F
PLATTSMOUTH    CLOUDY    74  65  74 SW8       29.88F
WAHOO          FAIR      84  49  30 W13G18    29.86F
$$




USA.gov is the U.S. government's official web portal to all federal, state and local government web resources and services.